Disclaimer

Please do not use the information listed here in-flight or in-navigation, as they are not provided to us by the airports but are provided by volunteers, so they might be outdated.

Search


Regions


Airport information page

Radio informations:
VORONEZH KRUG - 119.2 MHz
VORONEZH METEO - 120.8 MHz
VORONEZH TAXIING - 121.8 MHz
VORONEZH APP - 125.9 MHz

Airport informations:
Latitude: 51° 48' 51.16" N
Longitude: 039° 13' 46.52" E
Elevation: 514 feet - 157 meters
Operating hours: 24 hour operations
Operating agency: Civil government, landing fees and diplomatic clearance may be required
Timezone: UTC+3(+4DT) - Last Sunday in March to last Sunday in October
Fuel: N/A

Runway information:
13/31 - 7546 x 161 feet< - >2300 x 49 meters

Recent METARs:
UUOO 152100Z 00000MPS 9000 NSC M05/M07 Q1000 R30/090050 NOSIG RMK QFE737
UUOO 152130Z 00000MPS 9000 NSC M04/M07 Q0999 R30/090050 NOSIG RMK QFE736
UUOO 152200Z 00000MPS 9000 NSC M05/M07 Q0999 R30/090050 NOSIG RMK QFE736

Airport on the map: